Погода в Полотняном Заводе

Россия / Калужская область     54°44′31″N   35°59′53″E
темп.,
°C
ветер,
м/с
пор.,
м/с
влажн.,
%
обл.,
%
осадки,
мм/ч
давл.,
гПа
погр.,
м
25 июля, вс
вс2500:00+12ссз11735 0.0 101810
03:00+10с11801 0.0 101910
06:00+12вюв117358 0.0 102011
09:00+20з00475 0.0 1020465
12:00+23всв113610 0.0 10202220
15:00+23ссв223475 0.0 10202278
18:00+23ю014288 0.0 1020913
21:00+16ююв226252 0.0 102120
26 июля, пн
пн2600:00+17юв1158100 0.0 102212
03:00+17вюв1158100 0.0 102311
06:00+17юв1161100 0.0 102318
09:00+19ю2360100 0.0 1023191
12:00+23юз244893 0.0 1023818
15:00+27зюз3437100 0.0 10222723
18:00+24з125592 0.0 102278
21:00+19ююз116592 0.0 102211
27 июля, вт
вт2700:00+18юз2271100 0.0 102230
03:00+17юз2281100 0.6 102325
06:00+17з11875 0.2 102316
09:00+22ююз226622 0.3 1022344
12:00+27юз22425 0.0 10211882
15:00+26юз2346100 0.0 1020342
18:00+22в257291 0.3 1020163
21:00+18ююв368899 1.3 1019107
28 июля, ср
ср2800:00+18ю238726 0.1 101945
03:00+16ю349153 0.3 101865
06:00+17ю249087 0.0 101795
09:00+20ююв2478100 0.0 1016172
12:00+19ююз1286100 0.5 1016143
15:00+17юв5129398 1.9 1013488
18:00+20ю598193 0.3 1011761
21:00+18ю389591 2.1 1009261
29 июля, чт
чт2900:00+18зюз389943 0.7 1008267
03:00+17зюз3119713 0.7 1008331
06:00+17з413950 0.0 1009363
09:00+22з510740 0.0 1008616
12:00+27зсз6946100 0.0 10081939
15:00+28зсз683914 0.0 10082387
18:00+26з58445 0.0 10082044
21:00+20зюз36693 0.0 100896